Flag for U.S.A. Weather past 2 weeks in Kilgore, Texas, U.S.A.

Now
95 °F

Passing clouds.


Feels Like: 100 °F
Forecast: 74 / 94 °F
Wind: 12 mph from South

Location: Gregg County Airport

Current Time: Sep 1, 2014 at 4:21:12 PM

Latest Report: Sep 1, 2014 at 3:53 PM


Visibility: 10 mi

Pressure: 29.88 "Hg

Humidity: 41%

Dew point: 68 °F

Location of KilgoreLocation

Historic Weather in Kilgore — Graph

°F

Kilgore temperature yesterday

Maximum temperature yesterday: 93 °F (at 2:53 PM)
Minimum temperature yesterday: 74 °F (at 5:53 AM)
Average temperature yesterday: 81 °F

Past Weeks' High & Low Weather Summary

 TemperatureHumidityPressure
High98 °F (Aug 25, 3:53 PM)94% (Aug 22, 6:53 AM)30.07 "Hg (Aug 22, 6:53 AM)
Low72 °F (Aug 23, 6:53 AM)29% (Aug 27, 2:53 PM)29.82 "Hg (Aug 29, 4:53 PM)
Average83 °F67%29.94 "Hg
* Reported Aug 17 2:53 PM — Sep 1 2:53 PM, Kilgore, Weather by CustomWeather, © 2014

Note: Actual official high and low records may vary slightly from our data, if they occured in-between our weather recording intervals... More about our weather records

Advertising

Kilgore weather history for previous 24 hours

 ConditionsComfort  
Time TempWeatherWind HumidityBarometerVisibility
2:53 PM
Sep 1
95 °FScattered clouds.7 mph41%29.91 "Hg10 mi
1:53 PM95 °FScattered clouds.9 mph43%29.93 "Hg10 mi
12:53 PM91 °FScattered clouds.12 mph49%29.95 "Hg10 mi
11:53 AM90 °FScattered clouds.13 mph50%29.96 "Hg10 mi
10:53 AM89 °FPartly sunny.17 mph53%29.95 "Hg10 mi
9:53 AM87 °FPartly sunny.20 mph61%29.95 "Hg10 mi
8:53 AM82 °FPartly sunny.10 mph77%29.95 "Hg10 mi
7:53 AM78 °FScattered clouds.8 mph87%29.94 "Hg10 mi
6:53 AM77 °FPassing clouds.8 mph88%29.94 "Hg10 mi
5:53 AM78 °FPartly cloudy.8 mph84%29.93 "Hg10 mi
4:53 AM79 °FOvercast.9 mph82%29.93 "Hg10 mi
4:02 AM78 °FOvercast.10 mph84%29.96 "Hg10 mi
3:53 AM78 °FOvercast.10 mph84%29.93 "Hg10 mi
3:01 AM77 °FLow clouds.10 mph88%29.96 "Hg10 mi
1:53 AM76 °FPassing clouds.8 mph85%29.94 "Hg10 mi
12:53 AM76 °FClear.8 mph85%29.93 "Hg10 mi
11:53 PM
Aug 31
77 °FClear.8 mph79%29.93 "Hg10 mi
10:53 PM78 °FClear.9 mph76%29.94 "Hg10 mi
9:53 PM78 °FClear.7 mph76%29.93 "Hg10 mi
8:53 PM80 °FClear.9 mph67%29.93 "Hg10 mi
7:53 PM83 °FSunny.17 mph61%29.92 "Hg10 mi
6:53 PM85 °FSunny.16 mph61%29.93 "Hg10 mi
5:53 PM87 °FPassing clouds.16 mph59%29.93 "Hg10 mi
4:53 PM87 °FSunny.17 mph59%29.93 "Hg10 mi
Weather by CustomWeather, © 2014

See weather overviewHow to use our weather pages